Precipitable_Water
1.31 1.40 1.41 1.45 1.48 1.48 1.44 1.43 1.40 1.36 1.33 1.37 1.37 1.38 1.39 1.39 1.38 1.34 1.30 1.35 1.45 1.52 1.44 1.34 1.27 1.23 1.21 1.22 1.22 1.24 1.23 1.16 1.06 0.99 1.05 1.08 1.11 1.17 1.24 1.26 1.25 1.11 1.13
1.41 1.43 1.40 1.46 1.50 1.54 1.64 1.60 1.42 1.45 1.48 1.47 1.47 1.50 1.47 1.36 1.31 1.32 1.32 1.34 1.33 1.28 1.29 1.28 1.27 1.24 1.21 1.21 1.21 1.18 1.23 1.23 1.18 1.09 1.04 1.07 1.15 1.19 1.23 1.20 1.16 1.15 1.27
1.44 1.46 1.46 1.52 1.55 1.59 1.55 1.43 1.37 1.39 1.37 1.33 1.30 1.28 1.22 1.23 1.26 1.27 1.24 1.21 1.21 1.23 1.24 1.23 1.21 1.18 1.17 1.16 1.16 1.18 1.17 1.20 1.21 1.21 1.20 1.25 1.22 1.21 1.32 1.28 1.24 1.23 1.30
1.42 1.51 1.55 1.62 1.63 1.59 1.53 1.41 1.34 1.31 1.26 1.22 1.19 1.18 1.16 1.16 1.16 1.11 1.06 1.04 1.07 1.11 1.14 1.16 1.15 1.13 1.09 1.09 1.10 1.12 1.11 1.13 1.18 1.21 1.23 1.23 1.23 1.25 1.35 1.42 1.39 1.38 1.44
1.38 1.45 1.49 1.60 1.61 1.59 1.51 1.34 1.25 1.21 1.17 1.12 1.09 1.06 1.03 0.98 0.91 0.86 0.83 0.83 0.84 0.85 0.91 0.99 1.02 1.01 0.99 1.01 1.03 1.08 1.07 1.09 1.12 1.16 1.20 1.22 1.18 1.31 1.38 1.41 1.44 1.43 1.42
1.37 1.42 1.51 1.60 1.59 1.55 1.40 1.26 1.20 1.14 1.08 1.01 0.94 0.87 0.80 0.74 0.69 0.66 0.65 0.66 0.69 0.71 0.73 0.76 0.75 0.76 0.78 0.84 0.88 0.93 0.96 1.00 1.01 1.03 1.02 1.08 1.15 1.20 1.27 1.34 1.37 1.44 1.31
1.41 1.42 1.49 1.51 1.52 1.44 1.32 1.22 1.14 1.04 0.92 0.81 0.70 0.62 0.59 0.56 0.56 0.56 0.57 0.58 0.60 0.61 0.63 0.64 0.66 0.70 0.70 0.69 0.67 0.68 0.69 0.75 0.80 0.90 0.94 1.01 0.99 1.12 1.20 1.20 1.18 1.13 1.15
1.37 1.38 1.43 1.47 1.45 1.34 1.24 1.15 1.01 0.85 0.65 0.56 0.54 0.54 0.55 0.57 0.59 0.59 0.60 0.61 0.62 0.61 0.60 0.61 0.62 0.63 0.62 0.61 0.59 0.61 0.63 0.62 0.67 0.89 0.96 0.97 1.06 1.07 1.04 1.00 0.97 0.93 0.96
1.42 1.35 1.38 1.42 1.37 1.26 1.14 1.00 0.78 0.59 0.54 0.52 0.52 0.56 0.60 0.63 0.65 0.63 0.60 0.60 0.61 0.62 0.61 0.60 0.60 0.59 0.57 0.59 0.59 0.57 0.64 0.71 0.79 0.87 0.91 0.96 1.01 1.04 1.01 0.99 0.92 0.98 1.01
1.39 1.37 1.34 1.34 1.28 1.15 0.95 0.73 0.59 0.54 0.55 0.54 0.56 0.58 0.61 0.65 0.62 0.57 0.57 0.59 0.60 0.61 0.61 0.61 0.60 0.59 0.62 0.64 0.64 0.64 0.74 0.80 0.82 0.85 0.89 0.91 0.94 0.97 0.93 0.91 0.86 0.87 0.89
1.28 1.30 1.29 1.23 1.11 0.93 0.75 0.63 0.60 0.58 0.57 0.56 0.57 0.58 0.59 0.60 0.62 0.62 0.62 0.62 0.63 0.64 0.66 0.67 0.66 0.64 0.61 0.64 0.67 0.67 0.72 0.73 0.74 0.76 0.82 0.86 0.85 0.84 0.80 0.77 0.86 0.93 1.01
1.11 1.11 1.14 1.06 0.92 0.77 0.66 0.62 0.59 0.58 0.56 0.55 0.57 0.58 0.60 0.61 0.62 0.64 0.63 0.62 0.60 0.61 0.62 0.61 0.61 0.57 0.58 0.60 0.63 0.68 0.67 0.68 0.70 0.74 0.79 0.84 0.91 0.98 1.03 1.10 1.08 1.04 1.00
1.11 1.04 1.04 1.03 0.88 0.72 0.63 0.61 0.58 0.57 0.54 0.54 0.57 0.59 0.60 0.60 0.58 0.61 0.57 0.55 0.54 0.56 0.56 0.55 0.54 0.55 0.56 0.59 0.64 0.65 0.66 0.67 0.68 0.71 0.77 0.81 0.90 1.03 0.98 0.95 0.99 0.98 0.96
1.06 0.99 0.97 0.95 0.80 0.69 0.65 0.59 0.57 0.54 0.53 0.52 0.55 0.59 0.58 0.55 0.54 0.53 0.51 0.50 0.49 0.51 0.52 0.53 0.51 0.57 0.59 0.60 0.60 0.63 0.65 0.65 0.66 0.69 0.72 0.77 0.80 0.85 0.87 0.87 0.88 0.88 0.93
1.07 0.97 0.90 0.83 0.73 0.67 0.62 0.59 0.56 0.53 0.52 0.54 0.53 0.57 0.57 0.54 0.52 0.51 0.49 0.48 0.46 0.47 0.48 0.45 0.51 0.55 0.55 0.58 0.62 0.63 0.64 0.66 0.64 0.63 0.65 0.70 0.72 0.77 0.77 0.75 0.74 0.77 0.79
1.12 1.01 0.90 0.76 0.69 0.66 0.61 0.58 0.54 0.53 0.52 0.53 0.53 0.54 0.56 0.55 0.54 0.52 0.50 0.48 0.42 0.43 0.44 0.43 0.53 0.55 0.55 0.56 0.54 0.58 0.59 0.60 0.59 0.60 0.62 0.61 0.61 0.63 0.66 0.66 0.67 0.69 0.72
1.14 1.05 0.87 0.73 0.68 0.63 0.60 0.58 0.54 0.52 0.51 0.49 0.50 0.53 0.54 0.56 0.53 0.52 0.48 0.44 0.40 0.39 0.39 0.38 0.50 0.52 0.49 0.45 0.42 0.51 0.54 0.54 0.55 0.59 0.60 0.60 0.55 0.53 0.51 0.51 0.51 0.50 0.55
1.14 1.02 0.88 0.73 0.65 0.61 0.58 0.57 0.54 0.52 0.50 0.50 0.51 0.51 0.52 0.53 0.52 0.49 0.45 0.40 0.40 0.35 0.33 0.31 0.39 0.43 0.41 0.40 0.40 0.45 0.50 0.53 0.55 0.57 0.57 0.57 0.53 0.51 0.49 0.47 0.43 0.42 0.45
1.15 1.04 0.87 0.72 0.63 0.58 0.57 0.56 0.54 0.53 0.51 0.52 0.53 0.51 0.51 0.51 0.50 0.47 0.43 0.39 0.38 0.32 0.27 0.25 0.26 0.35 0.35 0.36 0.37 0.40 0.46 0.48 0.46 0.46 0.45 0.46 0.47 0.47 0.46 0.45 0.42 0.39 0.38
1.16 1.06 0.89 0.73 0.63 0.58 0.58 0.56 0.55 0.54 0.54 0.54 0.52 0.50 0.48 0.48 0.47 0.45 0.40 0.37 0.33 0.26 0.23 0.22 0.21 0.23 0.26 0.21 0.20 0.26 0.40 0.45 0.48 0.45 0.45 0.46 0.44 0.44 0.43 0.40 0.38 0.38 0.37
1.18 1.05 0.88 0.71 0.62 0.57 0.53 0.50 0.50 0.48 0.53 0.54 0.52 0.50 0.47 0.46 0.45 0.43 0.40 0.33 0.30 0.25 0.23 0.22 0.22 0.20 0.20 0.21 0.18 0.20 0.22 0.38 0.44 0.47 0.48 0.44 0.39 0.39 0.39 0.36 0.35 0.34 0.35
1.12 1.05 0.88 0.70 0.61 0.54 0.53 0.52 0.54 0.56 0.60 0.59 0.55 0.51 0.49 0.45 0.44 0.41 0.39 0.35 0.32 0.28 0.25 0.24 0.22 0.19 0.22 0.22 0.18 0.19 0.17 0.24 0.38 0.43 0.46 0.44 0.42 0.41 0.39 0.37 0.37 0.38 0.37
1.07 1.05 0.86 0.68 0.60 0.55 0.54 0.56 0.58 0.60 0.60 0.57 0.54 0.50 0.49 0.47 0.46 0.46 0.43 0.40 0.37 0.32 0.27 0.27 0.24 0.22 0.19 0.23 0.25 0.21 0.16 0.16 0.22 0.24 0.34 0.41 0.43 0.42 0.40 0.39 0.41 0.41 0.41
1.09 1.03 0.85 0.69 0.60 0.56 0.57 0.55 0.54 0.51 0.48 0.53 0.53 0.51 0.50 0.51 0.52 0.52 0.48 0.46 0.42 0.38 0.33 0.31 0.29 0.27 0.25 0.22 0.25 0.28 0.28 0.27 0.20 0.19 0.25 0.29 0.32 0.36 0.38 0.41 0.41 0.42 0.42
1.09 0.96 0.80 0.68 0.61 0.58 0.57 0.57 0.55 0.53 0.58 0.58 0.54 0.50 0.50 0.54 0.56 0.53 0.50 0.48 0.44 0.43 0.41 0.38 0.36 0.33 0.32 0.29 0.27 0.27 0.28 0.28 0.29 0.25 0.22 0.26 0.31 0.33 0.34 0.34 0.35 0.36 0.38
1.03 0.92 0.77 0.66 0.59 0.58 0.57 0.58 0.56 0.56 0.55 0.52 0.49 0.46 0.50 0.54 0.57 0.55 0.54 0.50 0.49 0.47 0.45 0.44 0.43 0.41 0.39 0.38 0.36 0.35 0.32 0.29 0.28 0.28 0.26 0.26 0.27 0.30 0.34 0.35 0.36 0.37 0.39
Wind_Speed
11 11 10 9 8 7 6 6 5 4 3 3 3 2 2 2 2 3 3 4 4 4 5 5 5 5 6 6 7 7 7 8 8 8 8 8 9 9 10 10 10 11 10
12 12 11 10 9 7 7 5 4 3 3 2 2 2 2 2 2 3 4 4 5 5 5 5 5 6 6 7 7 8 8 8 9 9 10 10 11 11 11 12 12 12 12
12 13 12 10 9 8 7 5 4 4 3 2 1 0 2 3 3 4 5 5 5 5 5 5 6 6 7 7 8 9 9 10 11 11 12 13 14 13 13 14 14 14 14
12 13 12 11 10 8 7 6 5 4 3 2 1 1 2 4 5 5 5 5 5 5 5 5 6 7 8 9 10 11 11 12 13 14 14 16 16 15 16 16 16 16 16
13 14 13 12 11 9 8 6 5 4 3 2 2 3 4 5 5 5 6 5 6 6 6 7 7 9 10 11 12 13 14 14 15 16 17 17 17 17 18 18 18 18 18
13 15 14 13 11 10 8 7 5 5 4 3 3 4 4 5 5 6 6 6 6 6 7 8 9 11 12 13 14 15 16 17 17 18 18 18 18 18 19 19 19 19 19
14 16 15 14 12 11 9 8 6 5 4 4 4 4 4 5 5 6 6 6 6 7 8 9 10 12 13 14 15 16 17 17 17 17 17 16 17 17 17 18 19 20 20
16 16 16 15 14 12 10 9 7 6 5 5 4 4 4 5 5 6 6 7 7 8 9 10 11 12 13 14 15 15 16 16 16 15 15 15 16 16 16 17 16 16 16
17 17 17 16 15 13 12 10 8 7 6 5 5 4 4 5 6 7 7 7 8 9 10 11 12 13 13 13 14 14 14 14 13 13 14 14 13 13 13 13 12 12 12
19 19 18 17 15 14 13 11 9 7 6 5 5 5 5 5 7 7 7 8 8 9 10 11 12 12 12 13 13 14 12 12 13 13 13 13 12 12 12 12 11 11 11
21 20 19 18 16 15 14 12 9 8 7 6 6 6 6 7 7 7 7 8 8 9 10 11 11 12 12 12 13 12 12 13 14 14 13 12 12 11 10 9 8 8 8
23 22 21 19 17 16 15 13 11 9 7 7 6 6 6 7 7 7 8 8 9 9 10 11 11 12 12 13 13 12 13 14 13 13 11 10 8 7 5 5 6 7 8
25 23 22 20 18 17 16 14 12 10 8 7 7 6 7 7 7 7 7 8 9 10 10 11 12 12 12 13 13 13 13 13 12 11 10 8 5 5 5 6 7 8 8
27 24 22 21 19 18 16 15 12 11 9 8 7 7 7 7 7 8 8 9 9 10 11 12 12 12 13 13 13 12 13 13 12 10 9 7 5 6 7 8 9 9 9
28 25 24 22 20 19 17 15 13 12 10 9 8 8 8 7 8 8 9 9 10 11 11 12 12 12 13 13 13 13 13 13 11 9 8 7 7 8 9 10 10 10 11
30 27 25 23 21 19 18 16 14 12 10 9 8 8 8 8 9 9 10 10 11 11 12 13 12 12 13 14 14 14 14 13 12 10 9 9 9 10 10 11 11 11 12
32 28 26 24 22 20 18 16 14 13 11 10 9 9 9 9 9 10 11 11 11 12 12 13 13 13 14 15 14 14 14 13 12 11 11 11 12 12 13 13 13 13 13
33 30 27 25 23 21 19 17 15 13 12 11 10 9 9 9 10 10 11 11 11 12 12 13 14 14 14 15 15 15 15 14 13 13 13 14 14 14 15 14 15 15 15
35 31 28 26 24 22 19 18 16 14 12 11 11 10 10 10 11 11 11 11 12 13 13 14 14 15 15 16 16 16 16 15 15 15 15 16 16 16 16 16 15 15 15
35 32 29 26 24 22 20 18 16 14 13 12 11 11 11 11 11 11 11 12 13 13 14 15 15 15 16 17 18 18 17 17 17 17 17 18 18 17 17 17 18 18 18
36 33 30 27 25 23 21 18 16 15 14 12 12 12 11 11 12 12 12 12 13 14 14 15 16 16 16 18 18 18 18 18 18 19 19 18 19 19 19 19 20 20 20
37 34 31 28 26 24 21 19 17 15 14 13 12 12 12 12 12 13 13 13 14 15 15 16 16 17 17 18 18 18 18 19 18 19 20 20 20 20 21 22 22 22 23
37 35 32 29 26 24 22 19 17 15 14 13 14 13 13 13 13 14 14 15 16 16 16 17 17 17 18 19 19 19 19 19 21 19 20 21 22 23 23 24 24 25 26
36 34 31 29 27 24 22 20 18 16 15 14 14 13 14 14 15 15 16 16 16 16 17 18 18 19 19 20 20 20 21 21 21 21 21 22 24 24 25 26 28 29 29
36 34 31 29 27 25 23 20 18 16 15 14 14 14 15 15 15 16 16 16 17 18 18 19 19 20 21 21 22 22 23 24 24 24 24 25 26 28 28 29 30 31 32
36 34 31 29 27 25 22 20 18 16 15 15 15 15 15 16 17 17 17 17 18 19 19 20 21 22 22 23 24 24 25 25 25 26 27 28 28 29 30 31 31 32 33
Wind_Direction
191 185 180 174 167 162 157 154 147 139 129 119 109 93 75 56 37 17 4 357 1 356 348 346 344 341 339 338 334 329 327 326 325 322 319 317 313 309 304 304 303 303 303
184 183 181 178 174 172 166 162 162 156 147 131 109 91 61 28 359 347 344 339 334 333 333 333 335 335 334 334 333 331 325 323 322 320 315 311 309 306 303 301 301 300 299
186 186 186 184 182 179 178 178 173 168 160 155 146 4 343 345 341 335 331 330 333 334 336 334 332 333 332 332 330 328 326 318 315 312 309 306 302 298 297 297 297 295 293
193 192 190 188 187 187 187 184 183 182 186 199 255 309 322 326 329 328 329 329 331 336 336 334 332 330 328 325 322 320 319 317 313 308 307 304 299 293 296 296 295 292 291
198 195 194 194 194 192 192 193 198 201 210 234 270 300 314 320 323 325 323 320 319 319 319 319 320 319 318 317 317 316 314 314 312 308 304 302 298 295 294 293 293 290 287
201 198 196 196 196 199 200 204 210 215 226 244 272 296 310 317 321 323 323 318 316 315 315 315 315 315 315 314 313 312 311 311 309 306 304 301 299 296 293 292 292 290 287
205 201 201 203 204 205 206 211 219 225 235 249 271 291 306 316 321 323 323 321 319 317 317 317 317 316 316 315 314 313 312 312 310 310 308 304 303 300 298 296 293 291 288
208 205 206 207 207 208 212 217 224 232 240 251 266 284 301 311 317 320 321 319 319 318 318 317 317 318 318 318 319 318 318 316 314 315 314 310 308 305 303 302 301 300 297
210 209 209 209 210 212 215 220 228 233 241 250 262 277 295 308 314 317 317 317 317 318 318 318 319 320 320 322 323 324 323 323 323 321 319 319 316 312 311 312 312 311 311
212 211 211 211 213 215 217 221 228 232 238 247 259 273 287 301 312 316 315 315 316 319 321 322 322 322 323 324 327 330 329 329 328 326 323 319 317 314 316 314 311 313 317
214 212 212 214 215 216 217 220 225 230 239 251 263 272 286 295 303 312 315 317 318 319 321 323 323 325 327 328 328 329 328 327 327 325 323 319 315 314 319 323 326 328 331
212 212 213 214 216 215 217 220 226 232 239 250 262 273 287 296 298 303 311 314 317 322 324 327 325 324 325 326 328 327 327 326 325 325 325 326 327 330 345 359 360 354 350
211 212 214 214 215 215 218 221 226 231 239 250 263 273 285 294 301 303 308 313 315 319 323 324 326 326 325 326 325 326 327 327 326 323 321 319 325 343 340 340 342 338 340
210 210 212 214 215 216 217 220 224 230 238 249 262 273 283 291 295 302 305 309 314 317 319 322 322 323 324 326 326 325 325 325 322 318 314 308 304 309 313 315 316 319 325
210 211 212 214 214 215 217 219 223 230 237 248 262 271 279 286 293 299 303 307 310 316 318 320 320 321 322 323 324 324 323 321 316 312 309 300 298 299 302 305 307 308 306
210 211 212 212 213 213 216 218 223 228 237 249 259 268 276 284 289 296 300 303 308 311 316 318 318 319 320 320 318 318 318 317 309 302 298 296 295 296 297 300 302 304 304
209 210 211 211 212 213 215 218 222 228 236 247 257 266 275 283 290 296 299 300 305 310 312 316 316 317 319 320 317 315 314 314 305 295 291 291 292 293 293 295 297 298 299
207 208 210 210 211 213 215 219 223 229 237 245 259 267 274 284 289 295 298 299 303 308 310 312 313 313 316 319 318 314 309 309 302 292 288 288 289 290 290 292 293 293 294
206 207 208 209 210 212 214 218 223 229 238 247 258 266 275 281 287 295 297 299 302 307 307 309 311 311 313 315 315 313 308 303 297 293 287 286 286 287 288 289 291 292 293
206 207 208 209 210 211 214 218 224 231 240 249 259 266 273 280 286 292 295 298 303 304 306 308 309 310 311 313 312 310 306 302 295 291 288 285 284 284 286 287 288 289 290
207 207 207 207 209 211 214 218 225 232 239 250 258 266 272 280 285 290 295 298 302 304 306 308 308 309 309 313 312 311 307 301 296 290 287 285 284 283 284 286 287 288 288
206 207 206 207 209 212 215 220 227 232 242 252 258 265 274 279 284 288 294 296 300 302 305 307 308 307 309 312 311 310 309 307 302 295 286 283 283 283 284 285 286 286 288
205 206 205 207 209 213 216 221 226 233 243 253 260 268 273 278 282 290 292 295 298 299 302 304 306 308 308 308 311 308 307 303 304 300 295 285 283 283 284 285 285 286 287
203 204 205 207 209 213 216 221 226 236 247 255 259 267 274 279 282 291 292 292 294 297 300 302 304 306 307 307 307 307 304 302 301 298 295 292 288 285 285 286 285 286 286
202 204 206 207 210 213 217 222 229 240 247 254 261 267 274 279 286 291 291 291 292 295 298 300 303 305 305 304 304 304 303 302 299 294 293 292 290 287 287 287 287 287 286
201 203 206 207 210 213 218 223 230 240 247 255 262 270 275 281 288 289 289 291 293 295 297 299 301 303 303 303 302 301 300 300 299 297 294 292 290 290 289 288 287 287 286